Location: *
(50.9167°S, 179.4000°W)
Time: 21:26:26
(UTC+00:00)

Cosmos 1726 Rocket - Pass Details

Date: 03 March 2024
Orbit: 599 x 627 km, 82.5° (Epoch: 16 April)

Event Time Altitude Azimuth Distance (km) Brightness Sun altitude
Rises 15:42:18 0° 189° (S) 2,900 7.3 -16.7°
Reaches altitude 10° 15:44:33 10° 187° (S) 1,991 6.5 -16.4°
Maximum altitude 15:48:57 73° 102° (ESE) 650 3.8 -15.8°
Drops below altitude 10° 15:53:20 10° 16° (NNE) 1,978 6.0 -15.3°
Sets 15:55:33 0° 14° (NNE) 2,879 6.8 -15.0°
